This demonstration page uses our WeatherBlox Daily Observations layout. Learn more.

Left ArrowRight Arrow

39.12711, -84.51439

Hourly Observations for March 27, 2021

Temp ( °F °C ) Dew Point ( °F °C ) Humidity (%) Winds ( mph kmh ) Pressure ( in mb ) Visibility ( mi km ) Precip ( " mm )
12:00 am 00:00 Clear with Mist and Fog 42 5.6 41 5 96 96 Calm 30.17 1022 0.75 1.207005 0 0
12:10 am 00:10 Clear with Fog 42 5.6 41 5 96 96 Calm 30.17 1022 0.25 0.402335 0 0
12:18 am 00:18 Clear with Fog 43 6.1 41 5 93 93 Calm 30.17 1022 0.5 0.80467 0 0
12:27 am 00:27 Clear with Mist and Fog 41 5 40 4.4 96 96 Calm 30.17 1022 1 1.60934 0 0
12:34 am 00:34 Mostly Cloudy with Fog 40 4.4 39 3.9 97 97 Calm 30.17 1022 0.5 0.80467 0 0
12:41 am 00:41 Clear with Fog 42 5.6 40 4.4 92 92 Calm 30.17 1022 0.25 0.402335 0 0
12:53 am 00:53 Mostly Cloudy with Fog 41 5 40 4.4 96 96 Calm 30.15 1021 0.25 0.402335 0 0
1:10 am 01:10 Mostly Cloudy with Mist and Fog 41 5 40 4.4 96 96 Calm 30.17 1022 0.75 1.207005 0 0
1:35 am 01:35 Mostly Cloudy with Fog 41 5 39 3.9 93 93 Calm 30.17 1022 0.25 0.402335 0 0
1:46 am 01:46 Mostly Cloudy with Fog 41 5 39 3.9 93 93 Calm 30.17 1022 0.25 0.402335 0 0
1:53 am 01:53 Mostly Cloudy with Fog 41 5 40 4.4 96 96 Calm 30.15 1021 0.5 0.80467 0 0
2:11 am 02:11 Clear with Fog 38 3.3 37 2.8 97 97 ENE 5 7 30.16 1021 0.5 0.80467 0 0
2:18 am 02:18 Mostly Cloudy with Mist and Fog 40 4.4 39 3.9 97 97 ENE 3 6 30.16 1021 1 1.60934 0 0
2:28 am 02:28 Mostly Cloudy with Fog 40 4.4 39 3.9 97 97 Calm 30.16 1021 0.5 0.80467 0 0
2:35 am 02:35 Clear with Mist and Fog 40 4.4 39 3.9 97 97 Calm 30.15 1021 0.75 1.207005 0 0
2:41 am 02:41 Clear with Mist and Fog 41 5 41 5 100 100 NNE 3 6 30.15 1021 2.5 4.02335 0 0
2:53 am 02:53 Mostly Cloudy with Mist and Fog 37 2.8 37 2.8 100 100 Calm 30.14 1021 0.75 1.207005 0 0
3:03 am 03:03 Mostly Cloudy with Fog 38 3.3 37 2.8 97 97 Calm 30.16 1021 0.25 0.402335 0 0
3:24 am 03:24 Mostly Cloudy with Mist and Fog 34 1.1 34 1.1 100 100 Calm 30.17 1022 1 1.60934 0 0
3:41 am 03:41 Mostly Cloudy with Fog 37 2.8 37 2.8 100 100 Calm 30.16 1021 0.5 0.80467 0 0
3:48 am 03:48 Mostly Cloudy with Fog 37 3 37 3 100 100 Calm 30.16 1021 0.25 0.402335 0 0
3:53 am 03:53 Mostly Cloudy with Fog 38 3.3 37 2.8 97 97 Calm 30.14 1021 0.25 0.402335 0 0
4:53 am 04:53 Mostly Cloudy with Fog 40 4.4 39 3.9 97 97 Calm 30.14 1021 0.25 0.402335 0 0
5:20 am 05:20 Mostly Cloudy with Fog 40 4.4 39 3.9 97 97 Calm 30.16 1021 N/A 0 0
5:32 am 05:32 Mostly Cloudy with Fog 40 4.4 39 3.9 97 97 Calm 30.15 1021 0.25 0.402335 0 0
5:53 am 05:53 Mostly Cloudy with Fog 39 3.9 39 3.9 100 100 Calm 30.14 1021 0.5 0.80467 0 0
6:06 am 06:06 Mostly Cloudy with Fog 39 3.9 39 3.9 100 100 Calm 30.16 1021 0.25 0.402335 0 0
6:53 am 06:53 Mostly Cloudy with Fog 40 4.4 39 3.9 97 97 Calm 30.14 1021 0.25 0.402335 0 0
7:53 am 07:53 Mostly Cloudy with Fog 39 3.9 38 3.3 96 96 Calm 30.13 1020 0.25 0.402335 0 0
8:53 am 08:53 Cloudy with Fog 40 4.4 40 4.4 100 100 Calm 30.13 1020 0.25 0.402335 0 0
9:09 am 09:09 Cloudy with Mist and Fog 41 5 40 4.4 96 96 Calm 30.14 1021 0.75 1.207005 0 0
9:38 am 09:38 Mostly Cloudy with Mist and Fog 44 6.7 43 6.1 96 96 Calm 30.1 1019 2 3.21868 0 0
9:53 am 09:53 Sunny with Mist and Fog 45 7.2 44 6.7 97 97 S 3 6 30.1 1019 6 9.65604 0 0
10:00 am 10:00 Partly Cloudy with Mist and Fog 45 7.2 44 6.7 97 97 Calm 30.1 1019 6 9.65604 0 0
10:53 am 10:53 Sunny 50 10 46 7.8 86 86 Calm 30.09 1019 10 16.0934 0 0
11:53 am 11:53 Sunny 57 13.9 48 8.9 72 72 SW 5 7 30.08 1019 10 16.0934 0 0
1:53 pm 13:53 Sunny 65 18.3 49 9.4 56 56 SE 9 15 30.02 1017 10 16.0934 0 0
3:53 pm 15:53 Sunny 71 21.7 47 8.3 42 42 SSE 7 11 29.94 1014 10 16.0934 0 0
4:53 pm 16:53 Sunny 72 22.2 48 8.9 43 43 S 10 17 29.92 1013 10 16.0934 0 0
7:53 pm 19:53 Sunny 68 20 52 11.1 57 57 S 9 15 29.88 1012 10 16.0934 0 0
8:53 pm 20:53 Clear 65 18.3 55 12.8 70 70 S 9 15 29.88 1012 10 16.0934 0 0
9:53 pm 21:53 Clear 63 17.2 55 12.8 76 76 S 7 11 29.87 1012 10 16.0934 0 0
10:53 pm 22:53 Mostly Cloudy 62 16.7 55 12.8 78 78 SSW 7 11 29.83 1010 10 16.0934 0 0
11:44 pm 23:44 Mostly Cloudy 62 16.7 56 13.3 80 80 S 8 13 29.81 1010 10 16.0934 0 0
11:53 pm 23:53 Partly Cloudy 61 16.1 55 12.8 81 81 S 7 11 29.82 1010 10 16.0934 0 0

Powered by AerisWeather